Location: Moscow
(55.7500°N, 37.5830°E)
Time: 21:08:53
(UTC+03:00)

N. Korean satellite - Pass Details

Date: 25 February 2021
Orbit: 452 x 499 km, 97.2° (Epoch: 20 April)

Event Time Altitude Azimuth Distance (km) Brightness Sun altitude
Rises 04:46:44 0° 30° (NNE) 2,499 10.9 -23.6°
Reaches altitude 10° 04:49:51 10° 61° (ENE) 1,627 10.3 -23.1°
Maximum altitude 04:51:22 12° 87° (E) 1,490 10.0 -22.9°
Drops below altitude 10° 04:52:53 10° 113° (ESE) 1,631 9.9 -22.7°
Sets 04:56:01 0° 144° (SE) 2,514 10.4 -22.3°
